Weather observations for the past three days for
Ruby
Imperial (Metric)
Date Time (akdt) Wind (mph) Vis. (mi.) Weather Sky Cond. Temperature (ºF) Relative Humidity Wind Chill (°F) Heat Index (°F) Pressure Precipitation (in)
Air Dwpt 6 hour altimeter (in) sea level (mb) 1 hr 3 hr 6 hr
Max. Min.
15 01:56 SE 5 10.00 Overcast SCT038 OVC047 48.9 41 74% 48 29.62 1003.7
15 00:56 Calm 10.00 Overcast BKN042 OVC075 48.9 45 86% 29.6 1003.0
14 23:56 SE 3 10.00 Overcast FEW065 BKN095 OVC110 51.1 39 64% 29.56 1001.4
14 22:56 SE 5 10.00 Fair CLR 52 39 61% 29.55 1001.2
14 21:56 E 6 10.00 Fair CLR 52 45 55.9 50 77% 29.53 1000.4
14 20:56 E 7 10.00 Fair CLR 52 45 77% 29.52 1000.2
14 19:56 Vrbl 5 10.00 A Few Clouds FEW120 51.1 43 74% 29.54 1000.9
14 18:56 Vrbl 7 10.00 Partly Cloudy FEW050 SCT110 52 42.1 69% 29.53 1000.8
14 17:56 E 9 10.00 Overcast FEW050 OVC080 53.1 44.1 72% 29.51 999.9
14 15:56 SE 6 10.00 Overcast SCT033 OVC060 55 42.1 55.9 51.1 62% 29.49 999.3
14 14:56 SE 8 10.00 Overcast OVC060 54 39.9 59% 29.51 999.8
14 13:56 Vrbl 7 10.00 Overcast SCT028 OVC060 55 44.1 67% 29.5 999.4
14 12:56 SW 7 10.00 Overcast SCT026 BKN031 OVC070 53.1 44.1 72% 29.49 999.2
14 11:56 Vrbl 7 10.00 Overcast FEW020 BKN031 OVC060 53.1 44.1 72% 29.47 998.6
14 10:56 S 5 10.00 Partly Cloudy FEW019 SCT035 SCT090 53.1 46 77% 29.47 998.5
14 09:56 S 8 10.00 Mostly Cloudy SCT019 BKN090 BKN110 52 46.9 52 48 83% 29.46 998.2
14 08:56 Vrbl 7 10.00 Partly Cloudy SCT016 51.1 46.9 86% 29.41 996.5
14 06:56 Vrbl 6 10.00 Mostly Cloudy FEW046 SCT060 BKN100 48.9 46.9 93% 47 29.39 995.9
14 00:56 Calm 9.00 Light Rain OVC035 50 48.9 96% 29.37 994.9
13 23:56 SW 3 5.00 Light Rain Fog/Mist FEW003 BKN050 OVC060 52 51.1 97% 29.4 996.0
13 22:56 Calm 9.00 Light Rain OVC065 52 51.1 97% 29.39 995.5
13 21:56 N 6 9.00 Rain FEW030 SCT060 OVC070 52 50 54 52 93% 29.41 996.6
13 20:56 Calm 9.00 Rain FEW009 OVC029 52 51.1 97% 29.44 997.4
13 19:56 Calm 10.00 Light Rain FEW035 BKN043 OVC065 53.1 51.1 93% 29.45 997.8
13 18:56 Calm 10.00 Light Rain OVC055 52 51.1 97% 29.47 998.4
13 17:56 NE 3 10.00 Light Rain OVC060 53.1 50 89% 29.5 999.7
13 16:56 NE 7 10.00 Light Rain BKN049 OVC065 54 52 93% 29.53 1000.4
13 15:56 NE 3 10.00 Light Rain OVC041 54 50 59 54 87% 29.54 1000.8
13 14:56 E 9 10.00 Light Rain FEW014 BKN050 OVC065 55 51.1 87% 29.56 1001.3
13 13:56 E 10 10.00 Light Rain SCT037 BKN060 OVC090 55.9 48.9 77% 29.58 1002.4
13 12:56 SE 6 10.00 Overcast BKN055 OVC080 57 48 72% 29.57 1001.8
13 11:56 SE 8 10.00 Overcast BKN019 BKN026 OVC055 55 48.9 80% 29.61 1003.3
13 10:56 E 6 10.00 Overcast SCT020 BKN027 OVC032 55 48.9 80% 29.6 1002.9
13 09:56 SE 6 10.00 Overcast FEW023 BKN038 OVC070 54 48 55 50 80% 29.6 1002.6
13 08:56 E 5 10.00 Overcast OVC055 52 48.9 89% 29.62 1003.4
13 07:56 E 5 10.00 Overcast OVC060 51.1 48 89% 29.61 1003.2
13 06:56 E 6 10.00 Overcast OVC070 51.1 46.9 86% 29.63 1003.7
13 05:56 SE 5 10.00 Overcast OVC080 51.1 46.9 86% 29.63 1003.6
13 04:56 SE 6 10.00 Overcast OVC060 51.1 46.9 86% 29.62 1003.4
13 03:56 E 5 10.00 Overcast OVC060 50 48 53.1 50 93% 49 29.62 1003.5
13 02:56 E 7 10.00 Overcast FEW048 BKN065 OVC090 52 46.9 83% 29.62 1003.1
13 01:56 NE 6 10.00 Overcast SCT055 OVC095 50 48.9 96% 48 29.61 1003.2
13 00:56 NE 6 10.00 Overcast FEW004 BKN070 OVC110 50 48.9 96% 48 29.59 1002.3
12 23:56 E 7 10.00 Light Rain OVC065 51.1 48 89% 29.61 1003.1
12 22:56 SE 9 G 17 10.00 Light Rain OVC075 52 48 86% 29.61 1003.0
12 21:56 SE 13 G 22 10.00 Light Rain OVC075 53.1 48.9 62.1 53.1 86% 29.6 1002.9
12 20:56 Vrbl 6 10.00 Light Rain BKN060 OVC075 55 48 77% 29.6 1003.0
12 19:56 Vrbl 3 10.00 Overcast OVC060 59 46 62% 29.61 1003.1
12 18:56 SE 3 10.00 Overcast BKN070 OVC110 61 45 56% 29.59 1002.4
12 17:56 SE 7 10.00 Mostly Cloudy BKN070 62.1 46 56% 29.6 1002.8
12 16:56 E 14 G 21 10.00 Mostly Cloudy FEW044 SCT065 BKN085 61 46 58% 29.61 1002.9
12 15:56 E 13 G 21 10.00 Light Rain SCT039 BKN060 OVC075 59 52 64 53.1 78% 29.62 1003.4
12 14:56 SE 5 10.00 Overcast FEW035 OVC070 64 52 65% 29.64 1004.0
12 13:56 E 8 10.00 Mostly Cloudy BKN031 64 53.1 68% 29.67 1004.9
12 12:56 E 7 10.00 Partly Cloudy SCT016 61 55.9 84% 29.72 1006.7
12 11:56 E 8 10.00 A Few Clouds FEW006 57.9 55 90% 29.74 1007.4
12 10:56 E 12 10.00 Overcast OVC004 55.9 54 93% 29.74 1007.5
12 09:56 NE 13 10.00 Mostly Cloudy BKN090 53.1 52 53.1 48 96% 29.78 1009.0
12 08:56 E 8 10.00 Mostly Cloudy BKN002 BKN090 51.1 51.1 100% 29.81 1009.8
12 07:56 NE 7 0.50 Fog BKN002 50 48.9 96% 48 29.82 1010.4
12 06:56 NE 6 0.15 Fog OVC002 48 48 100% 46 29.84 1010.8
12 05:56 NE 8 0.15 Fog OVC002 48.9 48.9 100% 46 29.83 1010.5
12 04:56 E 7 0.15 Fog OVC002 50 48.9 96% 48 29.85 1011.1
12 03:56 E 6 0.15 Fog OVC002 50 50 55.9 50 100% 48 29.87 1011.9
12 02:56 E 7 0.50 Fog VV002 51.1 50 96% 29.87 1012.1
Date Time (akdt) Wind (mph) Vis. (mi.) Weather Sky Cond. Air Dwpt Max. Min. Relative Humidity Wind Chill (°F) Heat Index (°F) altimeter (in) sea level (mb) 1 hr 3 hr 6 hr
6 hour
Temperature (ºF) Pressure Precipitation (in)